Date String (YYYY-MM-DD hh:mm:ss) UTC,Instrument flags,Ambient pressure (hPa),Sample flow (lpm),Bypass flow (lpm),Sample temperature (°C),Ambient temperature (°C),ASC tube jacket temperature (°C),LED temperature (°C),Box temperature (°C),Sample RH (%),Span deviation,Mass concentration (μg/m³),Mass concentration (μg/m³),Mass concentration (μg/m³)
DateTimeUTC,F1_M11,P_M11,Q1_M11,Q2_M11,T1_M11,T2_M11,T3_M11,T4_M11,T5_M11,U1_M11,ZSPAN_M11,X0_M11,X2_M11,X1_M11
2022-01-08 02:00:00,,0812.3,5.00,0.00,27.1,26.4,00.0,36.1,28.8,08.6,0000.0,0001.50,0000.26,0000.17
2022-01-08 02:01:00,,0812.2,5.01,0.00,27.1,26.4,00.0,36.1,28.8,08.7,0000.0,0001.50,0000.26,0000.17
2022-01-08 02:02:00,,0812.2,4.98,0.00,27.1,26.4,00.0,36.1,28.9,08.5,0000.0,0001.53,0000.28,0000.18
2022-01-08 02:03:00,,0812.2,5.01,0.00,27.1,26.4,00.0,36.1,28.9,08.7,0000.0,0001.57,0000.30,0000.18
2022-01-08 02:04:00,,0812.2,4.99,0.00,27.1,26.5,00.0,36.1,28.9,08.7,0000.0,0001.36,0000.28,0000.18
2022-01-08 02:05:00,,0812.2,5.01,0.00,27.2,26.5,00.0,36.2,28.9,08.6,0000.0,0000.51,0000.28,0000.18
2022-01-08 02:06:00,,0812.2,4.99,0.00,27.2,26.5,00.0,36.2,28.9,08.5,0000.0,0000.46,0000.26,0000.17
2022-01-08 02:07:00,,0812.1,5.01,0.00,27.2,26.5,00.0,36.2,28.9,08.4,0000.0,0000.43,0000.24,0000.17
2022-01-08 02:08:00,,0812.1,4.99,0.00,27.2,26.5,00.0,36.2,28.9,08.3,0000.0,0000.39,0000.23,0000.17
2022-01-08 02:09:00,,0812.1,5.00,0.00,27.2,26.5,00.0,36.2,28.9,08.3,0000.0,0000.35,0000.21,0000.16
2022-01-08 02:10:00,,0812.1,4.99,0.00,27.2,26.4,00.0,36.2,28.9,08.6,0000.0,0000.29,0000.20,0000.16
2022-01-08 02:11:00,,0812.1,5.00,0.00,27.2,26.4,00.0,36.2,28.8,08.8,0000.0,0001.68,0000.21,0000.16
2022-01-08 02:12:00,,0812.2,5.01,0.00,27.2,26.4,00.0,36.2,28.8,08.8,0000.0,0002.10,0000.21,0000.16
2022-01-08 02:13:00,,0812.2,5.02,0.00,27.2,26.4,00.0,36.2,28.8,09.1,0000.0,0002.09,0000.20,0000.17
2022-01-08 02:14:00,,0812.2,4.98,0.00,27.1,26.4,00.0,36.2,28.8,08.8,0000.0,0002.05,0000.18,0000.17
2022-01-08 02:15:00,,0812.3,5.02,0.00,27.1,26.4,00.0,36.2,28.8,08.8,0000.0,0002.06,0000.19,0000.17
2022-01-08 02:16:00,,0812.3,5.00,0.00,27.1,26.4,00.0,36.2,28.9,08.4,0000.0,0002.10,0000.21,0000.18
2022-01-08 02:17:00,,0812.2,5.01,0.00,27.1,26.4,00.0,36.2,28.9,08.2,0000.0,0002.13,0000.22,0000.18
2022-01-08 02:18:00,,0812.1,5.00,0.00,27.2,26.4,00.0,36.2,28.9,08.2,0000.0,0002.17,0000.24,0000.18
2022-01-08 02:19:00,,0812.1,4.99,0.00,27.2,26.4,00.0,36.2,29.0,08.2,0000.0,0002.18,0000.24,0000.18
2022-01-08 02:20:00,,0812.1,5.01,0.00,27.2,26.5,00.0,36.2,29.0,08.0,0000.0,0002.23,0000.25,0000.17
2022-01-08 02:21:00,,0812.2,4.99,0.00,27.2,26.4,00.0,36.2,28.9,08.0,0000.0,0002.23,0000.26,0000.17
2022-01-08 02:22:00,,0812.2,5.01,0.00,27.2,26.4,00.0,36.2,28.9,08.3,0000.0,0001.02,0000.26,0000.18
2022-01-08 02:23:00,,0812.2,5.00,0.00,27.2,26.4,00.0,36.2,28.9,08.7,0000.0,0000.46,0000.28,0000.18
2022-01-08 02:24:00,,0812.1,5.00,0.00,27.2,26.4,00.0,36.2,28.9,09.0,0000.0,0000.46,0000.28,0000.17
2022-01-08 02:25:00,,0812.2,4.99,0.00,27.2,26.4,00.0,36.2,28.9,08.1,0000.0,0000.45,0000.27,0000.17
2022-01-08 02:26:00,,0812.3,5.00,0.00,27.2,26.4,00.0,36.2,28.9,08.2,0000.0,0000.47,0000.28,0000.17
2022-01-08 02:27:00,,0812.3,5.00,0.00,27.2,26.4,00.0,36.2,28.9,08.3,0000.0,0000.42,0000.25,0000.16
2022-01-08 02:28:00,,0812.3,5.01,0.00,27.2,26.4,00.0,36.2,28.9,08.2,0000.0,0000.40,0000.25,0000.16
2022-01-08 02:29:00,,0812.3,4.98,0.00,27.2,26.4,00.0,36.2,28.9,08.1,0000.0,0000.41,0000.25,0000.16
2022-01-08 02:30:00,,0812.3,5.00,0.00,27.2,26.4,00.0,36.2,28.9,08.1,0000.0,0000.42,0000.25,0000.16
2022-01-08 02:31:00,,0812.3,5.00,0.00,27.2,26.4,00.0,36.2,29.0,08.2,0000.0,0000.40,0000.25,0000.16
2022-01-08 02:32:00,,0812.3,4.99,0.00,27.2,26.4,00.0,36.2,29.0,08.2,0000.0,0000.38,0000.23,0000.16
2022-01-08 02:33:00,,0812.3,4.99,0.00,27.2,26.4,00.0,36.2,29.0,08.2,0000.0,0000.40,0000.24,0000.15
2022-01-08 02:34:00,,0812.3,5.01,0.00,27.2,26.4,00.0,36.2,29.0,08.1,0000.0,0000.39,0000.24,0000.16
2022-01-08 02:35:00,,0812.3,5.00,0.00,27.2,26.4,00.0,36.2,28.9,08.0,0000.0,0000.40,0000.24,0000.15
2022-01-08 02:36:00,,0812.3,4.99,0.00,27.1,26.4,00.0,36.2,28.9,08.0,0000.0,0000.42,0000.24,0000.16
2022-01-08 02:37:00,,0812.4,5.01,0.00,27.1,26.4,00.0,36.2,28.9,08.0,0000.0,0001.14,0000.23,0000.15
2022-01-08 02:38:00,,0812.4,4.99,0.00,27.1,26.4,00.0,36.2,28.9,08.1,0000.0,0001.22,0000.24,0000.15
2022-01-08 02:39:00,,0812.4,5.00,0.00,27.1,26.4,00.0,36.2,28.9,08.4,0000.0,0001.21,0000.24,0000.15
2022-01-08 02:40:00,,0812.4,5.01,0.00,27.1,26.4,00.0,36.2,28.9,08.5,0000.0,0001.16,0000.22,0000.15
2022-01-08 02:41:00,,0812.4,4.98,0.00,27.1,26.4,00.0,36.2,28.9,08.5,0000.0,0001.15,0000.22,0000.15
2022-01-08 02:42:00,,0812.4,5.02,0.00,27.1,26.4,00.0,36.2,28.9,08.5,0000.0,0001.14,0000.22,0000.15
2022-01-08 02:43:00,,0812.4,4.99,0.00,27.1,26.4,00.0,36.2,28.9,08.3,0000.0,0001.16,0000.23,0000.16
2022-01-08 02:44:00,,0812.4,5.00,0.00,27.2,26.4,00.0,36.2,28.9,07.9,0000.0,0001.14,0000.22,0000.16
2022-01-08 02:45:00,,0812.4,5.02,0.00,27.2,26.4,00.0,36.2,29.0,07.7,0000.0,0001.10,0000.20,0000.16
2022-01-08 02:46:00,,0812.4,4.98,0.00,27.2,26.4,00.0,36.2,29.0,07.7,0000.0,0001.09,0000.20,0000.16
2022-01-08 02:47:00,,0812.4,5.01,0.00,27.2,26.4,00.0,36.2,29.0,07.7,0000.0,0001.09,0000.20,0000.16
2022-01-08 02:48:00,,0812.4,5.00,0.00,27.1,26.4,00.0,36.2,28.9,07.7,0000.0,0000.39,0000.19,0000.16
2022-01-08 02:49:00,,0812.4,4.99,0.00,27.2,26.4,00.0,36.2,28.9,07.7,0000.0,0000.26,0000.19,0000.16
2022-01-08 02:50:00,,0812.4,5.00,0.00,27.2,26.4,00.0,36.2,28.9,08.2,0000.0,0000.24,0000.18,0000.17
2022-01-08 02:51:00,,0812.4,5.02,0.00,27.1,26.4,00.0,36.2,28.9,08.3,0000.0,0000.24,0000.18,0000.17
2022-01-08 02:52:00,,0812.4,4.99,0.00,27.2,26.4,00.0,36.2,28.9,08.2,0000.0,0000.24,0000.18,0000.17
2022-01-08 02:53:00,,0812.4,5.01,0.00,27.1,26.4,00.0,36.2,28.9,08.0,0000.0,0000.22,0000.17,0000.17
2022-01-08 02:54:00,,0812.5,5.00,0.00,27.1,26.4,00.0,36.2,28.9,08.1,0000.0,0000.21,0000.17,0000.16
2022-01-08 02:55:00,,0812.5,4.99,0.00,27.1,26.4,00.0,36.2,28.9,08.5,0000.0,0000.24,0000.18,0000.17
2022-01-08 02:56:00,,0812.5,5.01,0.00,27.1,26.4,00.0,36.2,28.9,08.7,0000.0,0000.26,0000.19,0000.17
2022-01-08 02:57:00,,0812.5,4.98,0.00,27.1,26.4,00.0,36.2,28.9,08.7,0000.0,0000.26,0000.20,0000.18
2022-01-08 02:58:00,,0812.5,5.01,0.00,27.1,26.4,00.0,36.2,28.9,08.5,0000.0,0000.31,0000.22,0000.18
2022-01-08 02:59:00,,0812.5,5.01,0.00,27.1,26.4,00.0,36.2,28.8,08.6,0000.0,0000.33,0000.24,0000.19
